Flag for Macedonia, Republic of Weather past 2 weeks in Skopje, Macedonia, Republic of

Now
45 °F

Scattered clouds.


Feels Like: 39 °F
Forecast: 36 / 48 °F
Wind: 10 mph from West

Location: Skopje-Petrovec

Current Time: Oct 25, 2014 at 10:46:43 AM

Latest Report: Oct 25, 2014 at 10:00 AM


Visibility: N/A

Pressure: 30.04 "Hg

Humidity: 76%

Dew point: 37 °F

Location of SkopjeLocation

Historic Weather in Skopje — Graph

°F

Skopje temperature yesterday

Maximum temperature yesterday: 48 °F (at 10:00 PM)
Minimum temperature yesterday: 34 °F (at 3:00 AM)
Average temperature yesterday: 41 °F

Past Weeks' High & Low Weather Summary

 TemperatureHumidityPressure
High77 °F (Oct 11, 4:00 PM)100% (Oct 10, 10:00 PM)30.39 "Hg (Oct 10, 10:00 PM)
Low34 °F (Oct 24, 3:00 AM)35% (Oct 19, 3:30 PM)29.50 "Hg (Oct 22, 5:30 PM)
Average56 °F83%30.02 "Hg
* Reported Oct 10 10:00 AM — Oct 25 10:00 AM, Skopje, Weather by CustomWeather, © 2014

Note: Actual official high and low records may vary slightly from our data, if they occured in-between our weather recording intervals... More about our weather records

Advertising

Skopje weather history for previous 24 hours

 ConditionsComfort  
Time TempWeatherWind HumidityBarometerVisibility
10:00 AM
Oct 25
45 °FScattered clouds.10 mph76%30.04 "HgN/A
9:30 AM43 °FMore clouds than sun.7 mph81%30.01 "HgN/A
9:00 AM43 °FMostly cloudy.7 mph81%30.01 "HgN/A
8:30 AM43 °FMostly cloudy.8 mph81%30.01 "HgN/A
8:00 AM45 °FDrizzle. Mostly cloudy.8 mph76%30.01 "HgN/A
7:30 AM45 °FOvercast.7 mph76%29.98 "HgN/A
7:00 AM45 °FOvercast.5 mph76%29.98 "HgN/A
6:30 AM45 °FOvercast.7 mph81%29.95 "HgN/A
6:00 AM45 °FLight rain. Overcast.7 mph81%29.95 "HgN/A
5:30 AM46 °FPartly cloudy.6 mph76%29.95 "HgN/A
5:00 AM46 °FPartly cloudy.6 mph76%29.95 "HgN/A
4:30 AM46 °FLight rain. Partly cloudy.No wind76%29.95 "HgN/A
4:00 AM46 °FPartly cloudy.No wind82%29.92 "HgN/A
3:30 AM46 °FPartly cloudy.5 mph82%29.92 "HgN/A
3:00 AM46 °FMostly cloudy.5 mph82%29.92 "HgN/A
2:30 AM46 °FLight rain. Mostly cloudy.No wind87%29.92 "HgN/A
2:00 AM46 °FLight rain. Mostly cloudy.No wind87%29.92 "HgN/A
1:30 AM48 °FRain. Mostly cloudy.No wind82%29.92 "HgN/A
1:00 AM46 °FRain. Mostly cloudy.No wind87%29.92 "HgN/A
12:30 AM46 °FRain. Mostly cloudy.No wind87%29.92 "HgN/A
12:00 AM46 °FRain. Mostly cloudy.No wind87%29.92 "HgN/A
11:30 PM
Oct 24
48 °FRain. Mostly cloudy.No wind82%29.92 "HgN/A
11:00 PM48 °FLight rain. Mostly cloudy.No wind82%29.92 "HgN/A
10:30 PM48 °FDrizzle. Overcast.5 mph82%29.92 "HgN/A
10:00 PM48 °FLight rain. Overcast.3 mph82%29.92 "HgN/A
9:30 PM46 °FLight rain. Mostly cloudy.6 mph82%29.92 "HgN/A
9:00 PM46 °FMostly cloudy.6 mph82%29.92 "HgN/A
8:30 PM45 °FOvercast.2 mph93%29.89 "Hg5 mi
6:30 PM45 °FLight rain. Cloudy.No wind93%29.89 "Hg4 mi
6:00 PM45 °FLight rain. Cloudy.No wind93%29.92 "Hg4 mi
5:30 PM46 °FLight rain. Cloudy.No wind87%29.89 "HgN/A
4:30 PM46 °FDrizzle. Cloudy.No wind82%29.89 "HgN/A
4:00 PM46 °FDrizzle. Cloudy.No wind82%29.89 "HgN/A
3:30 PM46 °FCloudy.No wind82%29.89 "HgN/A
3:00 PM45 °FCloudy.No wind87%29.89 "HgN/A
2:00 PM45 °FBroken clouds.No wind87%29.92 "HgN/A
1:30 PM45 °FBroken clouds.No wind87%29.92 "HgN/A
1:00 PM43 °FLight rain. Broken clouds.No wind93%29.92 "Hg4 mi
12:30 PM43 °FDrizzle. Cloudy.No wind87%29.92 "Hg4 mi
12:00 PM41 °FLight rain. Cloudy.No wind93%29.95 "Hg4 mi
11:30 AM41 °FLight rain. Cloudy.No wind93%29.95 "Hg4 mi
11:00 AM41 °FLight rain. Cloudy.No wind87%29.95 "Hg4 mi
10:30 AM41 °FCloudy.No wind87%29.92 "HgN/A
10:00 AM41 °FCloudy.5 mph87%29.92 "HgN/A
Weather by CustomWeather, © 2014

See weather overviewHow to use our weather pages